Nur fliegen ist schöner ....

Willkommen beim Flugservice Bautzen GmbH

Wir sind eine nach europäischen Richtlinien zugelassene Flugschule und lizenziertes Luftfahrtunternehmen. Bei uns können sie nicht nur Rundflüge über die Oberlausitz oder Sachsen buchen, sondern in unserer Flugschule selber das Fliegen erlernen. Erfahrene Fluglehrer stehen ihnen dabei zur Seite.

Wir bieten außerdem Businessflüghe sowie Transportleistungen auf dem Luftweg, ganz nach ihren Wünschen, an. Schauen sie sich in Ruhe bei uns um und wenn sie Fragen haben oder weitere Informationen benötigen, scheuen sie sich nicht Kontakt mit uns aufzunehmen.

Rundflüge können sie ganz leicht auch online in unserem Shop buchen.

Terminkalender

Letzter Monat November 2017 Nächster Monat
Mo Di Mi Do Fr Sa So
week 44 1 2 3 4 5
week 45 6 7 8 9 10 11 12
week 46 13 14 15 16 17 18 19
week 47 20 21 22 23 24 25 26
week 48 27 28 29 30

Flugwetterinfo

[Quelle: ADDS]
METAR
EDDC 221420Z 21008KT 9999 SCT028 SCT090 BKN260 10/05 Q1010 NOSIG =
TAF
EDDC 221100Z 2212/2312 23008KT 9999 SCT025 BKN035 BECMG 2217/2219 16010KT PROB30 TEMPO 2303/2312 16015G25KT =
SR / SS: 06:31 / 15:05 UTC (EDAB Flugplatz Bautzen 2017-11-22)

Webcam EDAB

Webcam EDAB
Flugservice Bautzen GmbH, Kornmarkt 34, 02625 Bautzen  Telefon: +49 (3591) 211105, Telefax: +49 (3591) 274512, E-Mail:  flugservice(at)fsbautzen.de